Left ArrowRight Arrow

32.19382, -80.73816

Hourly Observations for January 10, 2020

Temp ( °F °C ) Dew Point ( °F °C ) Humidity (%) Winds ( mph kmh ) Pressure ( in mb ) Visibility ( mi km ) Precip ( " mm )
12:15 am 00:15 Cloudy 57 14 55 13 94 94 NNE 7 11 30.51 1033 10 16 N/A
12:35 am 00:35 Cloudy 57 14 55 13 94 94 NNE 7 11 30.51 1033 9 14 N/A
12:55 am 00:55 Cloudy 57 14 55 13 94 94 NNE 7 11 30.51 1033 10 16 N/A
1:15 am 01:15 Cloudy 57 14 55 13 94 94 NNE 6 9 30.51 1033 10 16 N/A
1:35 am 01:35 Cloudy 59 15 55 13 88 88 N 7 11 30.51 1033 10 16 N/A
1:55 am 01:55 Cloudy 57 14 54 12 88 88 NNE 6 9 30.51 1033 10 16 N/A
2:15 am 02:15 Cloudy 57 14 54 12 88 88 NNE 8 13 30.50 1033 10 16 N/A
2:35 am 02:35 Cloudy 57 14 54 12 88 88 NE 6 9 30.50 1033 10 16 N/A
2:55 am 02:55 Cloudy 57 14 54 12 88 88 NNE 7 11 30.50 1033 10 16 N/A
3:15 am 03:15 Cloudy 57 14 54 12 88 88 NNE 7 11 30.50 1033 10 16 N/A
3:35 am 03:35 Cloudy 55 13 54 12 94 94 NNE 8 13 30.49 1033 10 16 N/A
3:55 am 03:55 Cloudy 55 13 54 12 94 94 NNE 9 15 30.49 1033 10 16 N/A
4:15 am 04:15 Cloudy 55 13 54 12 94 94 NNE 7 11 30.48 1032 10 16 N/A
4:35 am 04:35 Cloudy 57 14 54 12 88 88 NNE 6 9 30.47 1032 10 16 N/A
4:55 am 04:55 Cloudy 57 14 54 12 88 88 NNE 7 11 30.47 1032 10 16 N/A
5:15 am 05:15 Cloudy 57 14 54 12 88 88 NNE 7 11 30.46 1031 10 16 N/A
5:35 am 05:35 Cloudy 57 14 54 12 88 88 NNE 5 7 30.47 1032 10 16 N/A
6:50 am 06:50 Mostly Cloudy 57 14 54 12 88 88 NNE 7 11 30.48 1032 10 16 N/A
7:50 am 07:50 Mostly Cloudy 55 13 54 12 94 94 NNE 6 9 30.48 1032 10 16 N/A
8:50 am 08:50 Mostly Cloudy 59 15 57 14 94 94 NE 5 7 30.49 1033 10 16 N/A
9:50 am 09:50 Mostly Cloudy 63 17 59 15 88 88 NE 5 7 30.50 1033 10 16 N/A
10:50 am 10:50 Mostly Cloudy 64 18 59 15 83 83 E 7 11 30.49 1032 10 16 N/A
11:50 am 11:50 Mostly Cloudy 70 21 61 16 73 73 E 3 6 30.47 1032 10 16 N/A
12:50 pm 12:50 Mostly Cloudy 68 20 59 15 73 73 E 7 11 30.44 1031 10 16 N/A
1:50 pm 13:50 Mostly Cloudy 68 20 59 15 73 73 E 8 13 30.42 1030 10 16 N/A
2:50 pm 14:50 Cloudy 68 20 59 15 73 73 ESE 6 9 30.41 1030 10 16 N/A
3:50 pm 15:50 Partly Cloudy 68 20 59 15 73 73 ESE 6 9 30.40 1029 10 16 N/A
4:50 pm 16:50 Mostly Cloudy 68 20 59 15 73 73 ESE 6 9 30.40 1029 10 16 N/A
5:50 pm 17:50 Cloudy with Mist and Fog 64 18 61 16 88 88 SSE 6 9 30.41 1030 6 10 N/A
6:05 pm 18:05 Cloudy with Drizzle 64 18 63 17 94 94 S 7 11 30.42 1030 3 5 N/A
6:50 pm 18:50 Cloudy 64 18 63 17 94 94 Calm 30.41 1030 7 11 N/A
7:50 pm 19:50 Cloudy with Mist and Fog 63 17 63 17 100 100 Calm 30.39 1029 6 10 N/A
8:50 pm 20:50 Cloudy with Light Rain 63 17 61 16 94 94 Calm 30.40 1029 4 6 N/A
8:55 pm 20:55 Cloudy with Mist and Fog 63 17 61 16 94 94 Calm 30.39 1029 5 8 N/A
9:15 pm 21:15 Cloudy with Mist and Fog 63 17 61 16 94 94 Calm 30.39 1029 5 8 N/A
9:35 pm 21:35 Cloudy with Mist and Fog 63 17 63 17 100 100 Calm 30.39 1029 4 6 N/A
9:55 pm 21:55 Cloudy with Mist and Fog 63 17 61 16 94 94 Calm 30.39 1029 6 10 N/A
10:15 pm 22:15 Cloudy with Mist and Fog 63 17 61 16 94 94 Calm 30.39 1029 6 10 N/A
10:35 pm 22:35 Cloudy 64 18 63 17 94 94 Calm 30.38 1029 7 11 N/A
10:55 pm 22:55 Mostly Cloudy 64 18 63 17 94 94 S 6 9 30.38 1029 8 13 N/A
11:15 pm 23:15 Cloudy with Drizzle 64 18 63 17 94 94 S 7 11 30.37 1028 3 5 N/A
11:35 pm 23:35 Cloudy 64 18 63 17 94 94 VRB 5 7 30.36 1028 7 11 N/A
11:55 pm 23:55 Cloudy 64 18 63 17 94 94 VRB 5 7 30.36 1028 7 11 N/A

Powered by Vaisala Xweather